Corpus Christi, TX

2:41 PM CDT on July 23, 2017 (GMT -0500)
Corpus Christi International

Weather History for KCRP - November, 2011

Change the Weather History Date:

Friday, November 4, 2011

  Actual Average Record
Temperature  
Mean Temperature 58 °F 70 °F  
Max Temperature 68 °F 80 °F 98 °F (1988)
Min Temperature 47 °F 60 °F 38 °F (1950)
Degree Days  
Heating Degree Days 7 1  
Month to date heating degree days 10 4  
Since 1 July heating degree days 22 14  
Cooling Degree Days 0 6  
Month to date cooling degree days 14 25  
Year to date cooling degree days 3923 3376  
Growing Degree Days 7 (Base 50)    
Moisture  
Dew Point 29 °F    
Average Humidity 36    
Maximum Humidity 53    
Minimum Humidity 19    
Precipitation  
Precipitation 0.00 in 0.09 in 0.88 in (2002)
Month to date precipitation 0.14 0.36  
Year to date precipitation 10.68 28.32  
Snow  
Snow 0.00 in - - ()
Month to date snowfall 0.0  
Since 1 July snowfall 0.0  
Since 1 September snowfall 0.0  
Snow Depth 0.00 in    
Sea Level Pressure  
Sea Level Pressure 30.19 in    
Wind  
Wind Speed 8 mph (ENE)    
Max Wind Speed 14 mph    
Max Gust Speed 18 mph    
Visibility 10 miles    
Events      
T = Trace of Precipitation, MM = Missing Value Source: NWS Daily Summary

Daily Weather History Graph

Daily Weather History Graph

Search for Another Location

Airport or City:

Trip Planner

Search our weather history database for the weather conditions in past years. The results will help you decide how hot, cold, wet, or windy it might be!

Date:

Astronomy

Nov. 04, 2011 Rise Set
Actual Time 7:42 AM CDT 6:43 PM CDT
Civil Twilight 7:18 AM CDT 7:08 PM CDT
Nautical Twilight 6:50 AM CDT 7:35 PM CDT
Astronomical Twilight 6:23 AM CDT 8:03 PM CDT
Moon 3:10 PM CDT (11/4) 2:24 AM CDT (11/4)
Length of Visible Light 11h 49m
Length of Day
11h 01m
Waxing Gibbous, 69% of the Moon is Illuminated
Nov 4
Waxing Gibbous
Nov 10
Full
Nov 18
Last Quarter
Nov 25
New
Dec 2
First Quarter

Hourly Weather History & Observations

Time (CDT) Temp. Dew Point Humidity Pressure Visibility Wind Dir Wind Speed Gust Speed Precip Events Conditions
12:51 AM 54.0 °F 27.0 °F 35% 30.26 in 10.0 mi NE 9.2 mph - N/A   Clear
1:51 AM 52.0 °F 27.0 °F 38% 30.26 in 10.0 mi NNE 8.1 mph - N/A   Clear
2:51 AM 52.0 °F 26.1 °F 37% 30.25 in 10.0 mi NNE 10.4 mph - N/A   Clear
3:51 AM 48.9 °F 27.0 °F 43% 30.24 in 10.0 mi NNE 6.9 mph - N/A   Clear
4:51 AM 50.0 °F 27.0 °F 41% 30.24 in 10.0 mi NE 9.2 mph - N/A   Clear
5:51 AM 48.0 °F 28.9 °F 48% 30.24 in 10.0 mi NNE 9.2 mph - N/A   Clear
6:51 AM 48.0 °F 30.0 °F 50% 30.24 in 10.0 mi NE 9.2 mph - N/A   Clear
7:51 AM 46.9 °F 30.9 °F 54% 30.25 in 10.0 mi NE 9.2 mph - N/A   Clear
8:51 AM 52.0 °F 32.0 °F 47% 30.27 in 10.0 mi NNE 10.4 mph - N/A   Clear
9:51 AM 55.9 °F 28.9 °F 36% 30.27 in 10.0 mi NE 12.7 mph - N/A   Clear
10:51 AM 59.0 °F 25.0 °F 27% 30.27 in 10.0 mi NE 11.5 mph - N/A   Clear
11:51 AM 62.1 °F 24.1 °F 23% 30.26 in 10.0 mi NE 9.2 mph 16.1 mph N/A   Clear
12:51 PM 64.4 °F 23.0 °F 21% 30.23 in 10.0 mi NE 6.9 mph - N/A   Partly Cloudy
1:51 PM 66.2 °F 23.0 °F 19% 30.19 in 10.0 mi ENE 9.2 mph - N/A   Partly Cloudy
2:51 PM 68.0 °F 24.8 °F 20% 30.15 in 10.0 mi Variable 3.5 mph - N/A   Partly Cloudy
3:51 PM 68.0 °F 26.6 °F 21% 30.13 in 10.0 mi ENE 8.1 mph - N/A   Partly Cloudy
4:51 PM 66.2 °F 30.2 °F 26% 30.12 in 10.0 mi East 9.2 mph - N/A   Partly Cloudy
5:51 PM 64.4 °F 32.0 °F 30% 30.11 in 10.0 mi ESE 9.2 mph - N/A   Partly Cloudy
6:51 PM 60.8 °F 33.8 °F 36% 30.10 in 10.0 mi ESE 8.1 mph - N/A   Partly Cloudy
7:51 PM 57.9 °F 33.1 °F 39% 30.11 in 10.0 mi SE 8.1 mph - N/A   Partly Cloudy
8:51 PM 55.9 °F 32.0 °F 40% 30.12 in 10.0 mi SE 4.6 mph - N/A   Partly Cloudy
9:51 PM 55.9 °F 35.1 °F 45% 30.12 in 10.0 mi Calm Calm - N/A   Partly Cloudy
10:51 PM 55.0 °F 35.1 °F 47% 30.12 in 10.0 mi ESE 3.5 mph - N/A   Partly Cloudy
11:51 PM 51.1 °F 32.0 °F 48% 30.11 in 10.0 mi Calm Calm - N/A   Clear